Regional Weather Roundup
Issued by NWS

Home | Current Version | Previous Version | Graphics & Text | Print | Product List | Glossary On
Versions: 1 2 3 4 5 6 7 8 9 10 11 12 13 14 15 16 17 18 19 20 21 22 23 24 25 26 27 28 29 30 31 32 33 34 35 36 37 38 39 40 41 42 43 44 45 46 47 48 49 50
022
ASUS43 KBIS 291210
RWRND

NORTH DAKOTA REGIONAL WEATHER ROUNDUP
NATIONAL WEATHER SERVICE BISMARCK ND
700 AM CDT SAT APR 29 2017

NOTE: "FAIR" INDICATES FEW OR NO CLOUDS BELOW 12,000 FEET WITH NO
SIGNIFICANT WEATHER AND/OR OBSTRUCTIONS TO VISIBILITY.


NDZ001>003-009>011-017-291300-
NORTHWEST NORTH DAKOTA

CITY           SKY/WX    TMP DP  RH WIND       PRES   REMARKS
WILLISTON      FAIR      28  23  81 CALM      30.21R
6HR MIN TEMP:  28; 6HR MAX TEMP:  43;

MINOT          FAIR      42  18  37 SW9       30.21R
MINOT AFB      CLEAR     38  23  53 S7        30.20R
$$

NDZ018>021-031>035-040>046-291300-
SOUTHWEST NORTH DAKOTA

CITY           SKY/WX    TMP DP  RH WIND       PRES   REMARKS
BISMARCK       FAIR      25  22  88 CALM      30.26R
6HR MIN TEMP:  23; 6HR MAX TEMP:  35;

DICKINSON      FAIR      29  21  72 S10       30.22R WCI  20
GARRISON         N/A     29  24  82 CALM      30.23R
6HR MIN TEMP:  26; 6HR MAX TEMP:  38;

HETTINGER ARPT CLOUDY    26  21  81 CALM      30.25R
$$

NDZ004>008-012>016-024-026-027-054-291300-
NORTHEAST NORTH DAKOTA

CITY           SKY/WX    TMP DP  RH WIND       PRES   REMARKS
GRAND FORKS    PTCLDY    30  26  85 N5        30.26S
GRND FRKS AFB  CLEAR     29  25  85 N5        30.26S
DEVILS LAKE    FAIR      30  27  88 CALM      30.26R
$$

NDZ022-023-025-028>030-036>039-047>053-291300-
SOUTHEAST NORTH DAKOTA

CITY           SKY/WX    TMP DP  RH WIND       PRES   REMARKS
FARGO          CLEAR     27  24  89 CALM      30.26R
6HR MIN TEMP:  24; 6HR MAX TEMP:  33;

JAMESTOWN      FAIR      28  26  92 CALM      30.24R
$$





USA.gov is the U.S. government's official web portal to all federal, state and local government web resources and services.